| time (UTC) | temp C | wind direction | speed KPH | gust KPH | rain 1hr cm | rain 24hr cm | rain mn cm | humidity % | barometer mb |
| 20260505023044 | 22 | 104 | 3.2 | 11.3 | 0.00 | 0.00 | 0.00 | 68 | 1017.4 |
| 20260505022525 | 22 | 71 | 1.6 | 11.3 | 0.00 | 0.00 | 0.00 | 68 | 1017.3 |
| 20260505022025 | 22 | 126 | 3.2 | 11.3 | 0.00 | 0.00 | 0.00 | 69 | 1017.2 |
| 20260505021538 | 22 | 138 | 3.2 | 9.7 | 0.00 | 0.00 | 0.00 | 69 | 1017.2 |
| 20260505021027 | 22 | 148 | 1.6 | 9.7 | 0.00 | 0.00 | 0.00 | 69 | 1017.1 |
| 20260505020524 | 22 | 0 | 1.6 | 9.7 | 0.00 | 0.00 | 0.00 | 70 | 1017.1 |
| 20260505020037 | 22 | 115 | 0.0 | 3.2 | 0.00 | 0.00 | 0.00 | 70 | 1017.1 |
| 20260505015524 | 22 | 0 | 0.0 | 1.6 | 0.00 | 0.00 | 0.00 | 70 | 1017.1 |
| 20260505015025 | 22 | 0 | 0.0 | 1.6 | 0.00 | 0.00 | 0.00 | 70 | 1017.0 |
| 20260505014558 | 22 | 11 | 0.0 | 1.6 | 0.00 | 0.00 | 0.00 | 70 | 1016.8 |
| 20260505014025 | 22 | 0 | 0.0 | 1.6 | 0.00 | 0.00 | 0.00 | 70 | 1016.9 |
| 20260505013521 | 22 | 0 | 0.0 | 1.6 | 0.00 | 0.00 | 0.00 | 70 | 1016.7 |
| 20260505013044 | 22 | 0 | 0.0 | 0.0 | 0.00 | 0.00 | 0.00 | 70 | 1016.6 |
| 20260505012526 | 22 | 0 | 0.0 | 0.0 | 0.00 | 0.00 | 0.00 | 69 | 1016.4 |
| 20260505012025 | 22 | 0 | 0.0 | 0.0 | 0.00 | 0.00 | 0.00 | 69 | 1016.4 |
| 20260505011548 | 22 | 0 | 0.0 | 0.0 | 0.00 | 0.00 | 0.00 | 69 | 1016.5 |
| 20260505011024 | 22 | 0 | 0.0 | 0.0 | 0.00 | 0.00 | 0.00 | 68 | 1016.5 |
| 20260505010525 | 22 | 0 | 0.0 | 0.0 | 0.00 | 0.00 | 0.00 | 68 | 1016.4 |
| 20260505010040 | 22 | 0 | 0.0 | 1.6 | 0.00 | 0.00 | 0.00 | 68 | 1016.3 |
| 20260505005525 | 23 | 0 | 0.0 | 1.6 | 0.00 | 0.00 | 0.00 | 67 | 1016.3 |
| 20260505005025 | 23 | 0 | 0.0 | 1.6 | 0.00 | 0.00 | 0.00 | 67 | 1016.3 |
| 20260505004538 | 23 | 0 | 0.0 | 0.0 | 0.00 | 0.00 | 0.00 | 66 | 1016.2 |
| 20260505004021 | 23 | 0 | 0.0 | 0.0 | 0.00 | 0.00 | 0.00 | 65 | 1016.2 |
| 20260505003525 | 23 | 0 | 0.0 | 0.0 | 0.00 | 0.00 | 0.00 | 65 | 1016.0 |
| 20260505003038 | 23 | 0 | 0.0 | 0.0 | 0.00 | 0.00 | 0.00 | 64 | 1015.9 |
| 20260505002524 | 23 | 0 | 0.0 | 0.0 | 0.00 | 0.00 | 0.00 | 64 | 1015.8 |
| 20260505002022 | 23 | 0 | 0.0 | 0.0 | 0.00 | 0.00 | 0.00 | 64 | 1015.8 |
| 20260505001543 | 23 | 0 | 0.0 | 1.6 | 0.00 | 0.00 | 0.00 | 63 | 1015.8 |
| 20260505001025 | 23 | 0 | 0.0 | 1.6 | 0.00 | 0.00 | 0.00 | 63 | 1015.9 |
| 20260505000521 | 23 | 0 | 0.0 | 3.2 | 0.00 | 0.00 | 0.00 | 63 | 1015.7 |
| 20260505000037 | 23 | 0 | 0.0 | 3.2 | 0.00 | 0.00 | 0.00 | 63 | 1015.7 |
| 20260504235525 | 24 | 0 | 0.0 | 3.2 | 0.00 | 0.00 | 0.00 | 62 | 1015.6 |
| 20260504235025 | 24 | 0 | 0.0 | 3.2 | 0.00 | 0.00 | 0.00 | 62 | 1015.6 |
| 20260504234541 | 24 | 0 | 0.0 | 3.2 | 0.00 | 0.00 | 0.00 | 61 | 1015.5 |
| 20260504234025 | 24 | 0 | 0.0 | 3.2 | 0.00 | 0.00 | 0.00 | 60 | 1015.3 |
| 20260504233525 | 25 | 319 | 0.0 | 4.8 | 0.00 | 0.00 | 0.00 | 60 | 1015.3 |
| 20260504233041 | 25 | 0 | 0.0 | 4.8 | 0.00 | 0.00 | 0.00 | 60 | 1015.1 |
| 20260504232525 | 25 | 324 | 1.6 | 4.8 | 0.00 | 0.00 | 0.00 | 60 | 1015.2 |
| 20260504232024 | 25 | 333 | 0.0 | 3.2 | 0.00 | 0.00 | 0.00 | 59 | 1015.2 |
| 20260504231540 | 25 | 0 | 0.0 | 3.2 | 0.00 | 0.00 | 0.00 | 59 | 1015.1 |
| 20260504231025 | 25 | 339 | 0.0 | 6.4 | 0.00 | 0.00 | 0.00 | 58 | 1015.0 |
| 20260504230524 | 25 | 329 | 1.6 | 6.4 | 0.00 | 0.00 | 0.00 | 58 | 1015.0 |
| 20260504230040 | 25 | 326 | 1.6 | 4.8 | 0.00 | 0.00 | 0.00 | 58 | 1015.0 |
| 20260504225522 | 25 | 0 | 1.6 | 6.4 | 0.00 | 0.00 | 0.00 | 58 | 1015.1 |
| 20260504225025 | 25 | 332 | 3.2 | 6.4 | 0.00 | 0.00 | 0.00 | 56 | 1015.2 |
| 20260504224538 | 26 | 323 | 1.6 | 6.4 | 0.00 | 0.00 | 0.00 | 56 | 1015.1 |
| 20260504224021 | 26 | 320 | 1.6 | 4.8 | 0.00 | 0.00 | 0.00 | 56 | 1015.3 |
| 20260504223525 | 26 | 321 | 1.6 | 4.8 | 0.00 | 0.00 | 0.00 | 56 | 1015.2 |
| 20260504223037 | 26 | 331 | 1.6 | 4.8 | 0.00 | 0.00 | 0.00 | 55 | 1015.1 |
| 20260504222525 | 26 | 313 | 0.0 | 6.4 | 0.00 | 0.00 | 0.00 | 55 | 1015.1 |
| 20260504222023 | 26 | 323 | 1.6 | 6.4 | 0.00 | 0.00 | 0.00 | 55 | 1015.1 |
| 20260504221542 | 26 | 0 | 0.0 | 4.8 | 0.00 | 0.00 | 0.00 | 55 | 1015.3 |
| 20260504221022 | 26 | 325 | 0.0 | 6.4 | 0.00 | 0.00 | 0.00 | 54 | 1015.2 |
| 20260504220522 | 26 | 331 | 0.0 | 6.4 | 0.00 | 0.00 | 0.00 | 55 | 1015.4 |
| 20260504220040 | 26 | 329 | 3.2 | 8.0 | 0.00 | 0.00 | 0.00 | 54 | 1015.3 |
| 20260504215525 | 26 | 290 | 3.2 | 8.0 | 0.00 | 0.00 | 0.00 | 53 | 1015.2 |
| 20260504215022 | 26 | 325 | 3.2 | 8.0 | 0.00 | 0.00 | 0.00 | 54 | 1015.1 |
| 20260504214536 | 27 | 344 | 3.2 | 6.4 | 0.00 | 0.00 | 0.00 | 53 | 1015.0 |
| 20260504214024 | 27 | 309 | 3.2 | 6.4 | 0.00 | 0.00 | 0.00 | 52 | 1015.2 |
| 20260504213522 | 28 | 323 | 1.6 | 6.4 | 0.00 | 0.00 | 0.00 | 49 | 1015.1 |
| 20260504213038 | 28 | 336 | 1.6 | 4.8 | 0.00 | 0.00 | 0.00 | 47 | 1015.1 |
| 20260504212522 | 28 | 316 | 0.0 | 6.4 | 0.00 | 0.00 | 0.00 | 46 | 1015.0 |
| 20260504212024 | 29 | 331 | 1.6 | 6.4 | 0.00 | 0.00 | 0.00 | 46 | 1015.1 |
| 20260504211537 | 29 | 0 | 0.0 | 11.3 | 0.00 | 0.00 | 0.00 | 44 | 1015.1 |
| 20260504211022 | 29 | 0 | 0.0 | 12.9 | 0.00 | 0.00 | 0.00 | 33 | 1015.2 |
| 20260504210522 | 30 | 134 | 3.2 | 12.9 | 0.00 | 0.00 | 0.00 | 32 | 1015.2 |
| 20260504210053 | 30 | 194 | 1.6 | 11.3 | 0.00 | 0.00 | 0.00 | 32 | 1015.2 |
| 20260504205521 | 30 | 128 | 3.2 | 11.3 | 0.00 | 0.00 | 0.00 | 33 | 1015.3 |
| 20260504205022 | 30 | 142 | 0.0 | 6.4 | 0.00 | 0.00 | 0.00 | 33 | 1015.3 |
| 20260504204553 | 30 | 17 | 1.6 | 14.5 | 0.00 | 0.00 | 0.00 | 33 | 1015.2 |
| 20260504204022 | 30 | 71 | 4.8 | 14.5 | 0.00 | 0.00 | 0.00 | 32 | 1015.4 |
| 20260504203522 | 30 | 120 | 6.4 | 14.5 | 0.00 | 0.00 | 0.00 | 32 | 1015.4 |
| 20260504203044 | 31 | 88 | 4.8 | 11.3 | 0.00 | 0.00 | 0.00 | 33 | 1015.4 |
| 20260504202522 | 31 | 0 | 0.0 | 16.1 | 0.00 | 0.00 | 0.00 | 31 | 1015.4 |
| 20260504202022 | 31 | 88 | 3.2 | 16.1 | 0.00 | 0.00 | 0.00 | 33 | 1015.4 |
| 20260504201539 | 31 | 92 | 4.8 | 14.5 | 0.00 | 0.00 | 0.00 | 33 | 1015.4 |
| 20260504201021 | 31 | 83 | 1.6 | 12.9 | 0.00 | 0.00 | 0.00 | 33 | 1015.4 |
| 20260504200522 | 31 | 57 | 3.2 | 12.9 | 0.00 | 0.00 | 0.00 | 34 | 1015.5 |
| 20260504200037 | 31 | 107 | 3.2 | 11.3 | 0.00 | 0.00 | 0.00 | 34 | 1015.5 |
| 20260504195526 | 30 | 69 | 1.6 | 11.3 | 0.00 | 0.00 | 0.00 | 34 | 1015.7 |
| 20260504195022 | 30 | 87 | 3.2 | 19.3 | 0.00 | 0.00 | 0.00 | 34 | 1015.7 |
| 20260504194537 | 30 | 152 | 6.4 | 19.3 | 0.00 | 0.00 | 0.00 | 34 | 1015.9 |
| 20260504194023 | 31 | 65 | 6.4 | 17.7 | 0.00 | 0.00 | 0.00 | 33 | 1016.0 |
| 20260504193525 | 31 | 96 | 4.8 | 12.9 | 0.00 | 0.00 | 0.00 | 34 | 1016.0 |
| 20260504193037 | 31 | 46 | 3.2 | 14.5 | 0.00 | 0.00 | 0.00 | 33 | 1016.0 |
| 20260504192521 | 31 | 123 | 4.8 | 14.5 | 0.00 | 0.00 | 0.00 | 34 | 1016.2 |
| 20260504192022 | 31 | 74 | 3.2 | 12.9 | 0.00 | 0.00 | 0.00 | 35 | 1016.3 |
| 20260504191541 | 31 | 42 | 3.2 | 9.7 | 0.00 | 0.00 | 0.00 | 35 | 1016.3 |
| 20260504191025 | 31 | 0 | 3.2 | 8.0 | 0.00 | 0.00 | 0.00 | 34 | 1016.3 |
| 20260504190522 | 30 | 150 | 1.6 | 12.9 | 0.00 | 0.00 | 0.00 | 34 | 1016.3 |
| 20260504190042 | 30 | 17 | 3.2 | 14.5 | 0.00 | 0.00 | 0.00 | 35 | 1016.5 |
| 20260504185521 | 30 | 0 | 3.2 | 16.1 | 0.00 | 0.00 | 0.00 | 35 | 1016.4 |
| 20260504185022 | 30 | 53 | 3.2 | 16.1 | 0.00 | 0.00 | 0.00 | 36 | 1016.7 |
| 20260504184540 | 30 | 139 | 3.2 | 17.7 | 0.00 | 0.00 | 0.00 | 35 | 1017.0 |
| 20260504184022 | 31 | 155 | 8.0 | 17.7 | 0.00 | 0.00 | 0.00 | 35 | 1016.8 |
| 20260504183524 | 31 | 0 | 0.0 | 11.3 | 0.00 | 0.00 | 0.00 | 35 | 1016.9 |
| 20260504183038 | 31 | 0 | 0.0 | 12.9 | 0.00 | 0.00 | 0.00 | 34 | 1017.1 |
| 20260504182521 | 31 | 153 | 3.2 | 12.9 | 0.00 | 0.00 | 0.00 | 33 | 1017.3 |
| 20260504182021 | 31 | 96 | 3.2 | 11.3 | 0.00 | 0.00 | 0.00 | 35 | 1017.2 |
| 20260504181539 | 31 | 29 | 0.0 | 12.9 | 0.00 | 0.00 | 0.00 | 33 | 1017.4 |
| 20260504181024 | 30 | 0 | 3.2 | 12.9 | 0.00 | 0.00 | 0.00 | 35 | 1017.4 |
| 20260504180521 | 30 | 124 | 3.2 | 12.9 | 0.00 | 0.00 | 0.00 | 36 | 1017.6 |
| 20260504180036 | 30 | 360 | 4.8 | 11.3 | 0.00 | 0.00 | 0.00 | 36 | 1017.5 |
| 20260504175522 | 30 | 142 | 0.0 | 11.3 | 0.00 | 0.00 | 0.00 | 38 | 1017.5 |
| 20260504175022 | 30 | 103 | 4.8 | 14.5 | 0.00 | 0.00 | 0.00 | 37 | 1017.7 |
| 20260504174541 | 30 | 214 | 4.8 | 14.5 | 0.00 | 0.00 | 0.00 | 38 | 1017.5 |
| 20260504174022 | 30 | 57 | 1.6 | 12.9 | 0.00 | 0.00 | 0.00 | 38 | 1017.7 |
| 20260504173521 | 30 | 74 | 4.8 | 12.9 | 0.00 | 0.00 | 0.00 | 38 | 1017.8 |
| 20260504173041 | 30 | 0 | 0.0 | 11.3 | 0.00 | 0.00 | 0.00 | 40 | 1017.8 |
| 20260504172523 | 29 | 0 | 0.0 | 11.3 | 0.00 | 0.00 | 0.00 | 41 | 1017.8 |
| 20260504172022 | 29 | 0 | 1.6 | 11.3 | 0.00 | 0.00 | 0.00 | 40 | 1017.8 |
| 20260504171538 | 29 | 0 | 1.6 | 11.3 | 0.00 | 0.00 | 0.00 | 40 | 1017.9 |
| 20260504171027 | 29 | 79 | 3.2 | 11.3 | 0.00 | 0.00 | 0.00 | 39 | 1018.0 |
| 20260504170524 | 29 | 100 | 0.0 | 9.7 | 0.00 | 0.00 | 0.00 | 39 | 1018.1 |
| 20260504151022 | 27 | 74 | 1.6 | 12.9 | 0.00 | 0.00 | 0.00 | 49 | 1018.8 |
| 20260504150521 | 27 | 82 | 4.8 | 17.7 | 0.00 | 0.00 | 0.00 | 50 | 1018.9 |
| 20260504141022 | 25 | 109 | 3.2 | 17.7 | 0.00 | 0.00 | 0.00 | 56 | 1018.7 |
| 20260504140521 | 25 | 32 | 6.4 | 12.9 | 0.00 | 0.00 | 0.00 | 55 | 1018.8 |
| 20260504130525 | 21 | 55 | 3.2 | 12.9 | 0.00 | 0.00 | 0.00 | 70 | 1018.5 |
| 20260504110521 | 14 | 0 | 0.0 | 3.2 | 0.00 | 0.00 | 0.00 | 91 | 1017.9 |
| 20260504100521 | 14 | 0 | 0.0 | 1.6 | 0.00 | 0.00 | 0.00 | 90 | 1017.7 |
| 20260504081538 | 15 | 0 | 0.0 | 0.0 | 0.00 | 0.00 | 0.00 | 85 | 1017.8 |
| 20260504081021 | 15 | 0 | 0.0 | 0.0 | 0.00 | 0.00 | 0.00 | 85 | 1017.8 |
| 20260504080522 | 15 | 0 | 0.0 | 0.0 | 0.00 | 0.00 | 0.00 | 85 | 1017.8 |
| 20260504050522 | 19 | 71 | 0.0 | 1.6 | 0.00 | 0.00 | 0.00 | 75 | 1018.4 |
| 20260504045521 | 19 | 0 | 0.0 | 3.2 | 0.00 | 0.00 | 0.00 | 74 | 1018.6 |
| 20260504045021 | 19 | 71 | 0.0 | 6.4 | 0.00 | 0.00 | 0.00 | 74 | 1018.5 |
| 20260504044536 | 19 | 0 | 0.0 | 6.4 | 0.00 | 0.00 | 0.00 | 74 | 1018.5 |
| 20260504044023 | 19 | 0 | 0.0 | 6.4 | 0.00 | 0.00 | 0.00 | 74 | 1018.7 |
| 20260504043521 | 20 | 0 | 0.0 | 6.4 | 0.00 | 0.00 | 0.00 | 74 | 1018.7 |
| 20260504043036 | 20 | 74 | 0.0 | 4.8 | 0.00 | 0.00 | 0.00 | 74 | 1018.7 |
| 20260504042521 | 20 | 0 | 0.0 | 4.8 | 0.00 | 0.00 | 0.00 | 73 | 1018.7 |
| 20260504042021 | 20 | 0 | 0.0 | 6.4 | 0.00 | 0.00 | 0.00 | 73 | 1018.8 |
| 20260504041542 | 20 | 133 | 0.0 | 6.4 | 0.00 | 0.00 | 0.00 | 73 | 1018.9 |
| 20260504041023 | 20 | 0 | 0.0 | 3.2 | 0.00 | 0.00 | 0.00 | 72 | 1019.0 |
| 20260504040522 | 20 | 88 | 0.0 | 3.2 | 0.00 | 0.00 | 0.00 | 72 | 1018.9 |
| 20260504040042 | 20 | 0 | 0.0 | 3.2 | 0.00 | 0.00 | 0.00 | 72 | 1019.1 |
| 20260504035522 | 20 | 0 | 0.0 | 4.8 | 0.00 | 0.00 | 0.00 | 71 | 1018.9 |
| 20260504035021 | 20 | 0 | 0.0 | 4.8 | 0.00 | 0.00 | 0.00 | 71 | 1019.1 |
| 20260504034544 | 20 | 0 | 0.0 | 4.8 | 0.00 | 0.00 | 0.00 | 71 | 1019.1 |
| 20260504034021 | 21 | 0 | 0.0 | 4.8 | 0.00 | 0.00 | 0.00 | 70 | 1019.1 |
| 20260504033521 | 21 | 141 | 0.0 | 4.8 | 0.00 | 0.00 | 0.00 | 70 | 1019.1 |
| 20260504033038 | 21 | 0 | 0.0 | 9.7 | 0.00 | 0.00 | 0.00 | 70 | 1019.1 |
| 20260504032521 | 21 | 130 | 1.6 | 9.7 | 0.00 | 0.00 | 0.00 | 70 | 1018.9 |
| 20260504032024 | 21 | 98 | 1.6 | 8.0 | 0.00 | 0.00 | 0.00 | 69 | 1018.9 |
| 20260504031541 | 21 | 81 | 1.6 | 8.0 | 0.00 | 0.00 | 0.00 | 69 | 1018.9 |
| 20260504031021 | 21 | 0 | 0.0 | 6.4 | 0.00 | 0.00 | 0.00 | 69 | 1018.8 |
| 20260504030521 | 21 | 81 | 1.6 | 14.5 | 0.00 | 0.00 | 0.00 | 69 | 1018.8 |
| 20260504030037 | 21 | 69 | 1.6 | 14.5 | 0.00 | 0.00 | 0.00 | 69 | 1018.7 |
| 20260504025521 | 21 | 101 | 1.6 | 12.9 | 0.00 | 0.00 | 0.00 | 69 | 1018.6 |
| 20260504025021 | 21 | 81 | 3.2 | 11.3 | 0.00 | 0.00 | 0.00 | 70 | 1018.6 |
| 20260504024546 | 20 | 92 | 3.2 | 11.3 | 0.00 | 0.00 | 0.00 | 70 | 1018.6 |
| 20260504024021 | 20 | 0 | 3.2 | 9.7 | 0.00 | 0.00 | 0.00 | 71 | 1018.6 |
| 20260504023522 | 20 | 0 | 0.0 | 4.8 | 0.00 | 0.00 | 0.00 | 72 | 1018.5 |